This demonstration page uses our WeatherBlox Daily Observations layout. Learn more.

Left ArrowRight Arrow

39.29038, -76.61219

Hourly Observations for April 3, 2022

Temp ( °F °C ) Dew Point ( °F °C ) Humidity (%) Winds ( mph kmh ) Pressure ( in mb ) Visibility ( mi km ) Precip ( " mm )
12:54 am 00:54 Cloudy 46 7.8 34 1.1 63 63 SSE 5 7 29.89 1012 10 16 0.00 0.00
1:54 am 01:54 Cloudy 46 7.8 37 2.8 71 71 Calm 29.87 1012 10 16 0.00 0.00
2:54 am 02:54 Cloudy 46 7.8 39 3.9 77 77 E 5 7 29.84 1011 10 16 0.00 0.00
3:54 am 03:54 Cloudy 47 8.3 40 4.4 77 77 Calm 29.83 1010 10 16 0.00 0.00
4:54 am 04:54 Cloudy 47 8.3 40 4.4 77 77 Calm 29.81 1010 10 16 0.00 0.00
5:54 am 05:54 Cloudy 47 8.3 41 5 80 80 Calm 29.79 1009 10 16 0.00 0.00
6:54 am 06:54 Mostly Cloudy with Light Rain 47 8.3 41 5 80 80 Calm 29.79 1009 10 16 0.00 0.00
7:54 am 07:54 Mostly Cloudy 47 8.3 41 5 80 80 Calm 29.80 1009 10 16 0.00 0.00
8:54 am 08:54 Mostly Cloudy 49 9.4 40 4.4 71 71 VRB 3 6 29.79 1009 10 16 0.00 0.00
9:54 am 09:54 Mostly Sunny 54 12.2 40 4.4 59 59 VRB 3 6 29.78 1009 10 16 0.00 0.00
10:54 am 10:54 Mostly Cloudy 56 13.3 36 2.2 47 47 W 14 22 29.78 1008 10 16 0.00 0.00
11:54 am 11:54 Mostly Cloudy 60 15.6 33 0.6 36 36 W 21 33 29.77 1008 10 16 0.00 0.00
12:54 pm 12:54 Mostly Cloudy 58 14.4 34 1.1 41 41 W 24 39 29.80 1009 10 16 0.00 0.00
1:54 pm 13:54 Mostly Cloudy 56 13.3 31 -0.6 39 39 WNW 18 30 29.81 1010 10 16 0.00 0.00
2:54 pm 14:54 Mostly Cloudy 55 12.8 31 -0.6 40 40 W 20 31 29.81 1010 10 16 0.00 0.00
3:54 pm 15:54 Mostly Cloudy 58 14.4 32 0 38 38 NW 20 31 29.82 1010 10 16 0.00 0.00
4:54 pm 16:54 Mostly Cloudy 53 11.7 31 -0.6 43 43 WNW 21 33 29.85 1011 10 16 0.00 0.00
5:54 pm 17:54 Mostly Cloudy 51 10.6 29 -1.7 43 43 W 18 30 29.89 1012 10 16 0.00 0.00
6:54 pm 18:54 Mostly Cloudy 48 8.9 25 -3.9 41 41 WNW 21 33 29.93 1013 10 16 0.00 0.00
7:54 pm 19:54 Mostly Cloudy 47 8.3 25 -3.9 42 42 WNW 17 28 29.94 1014 10 16 0.00 0.00
8:54 pm 20:54 Mostly Cloudy 47 8.3 24 -4.4 41 41 WNW 16 26 29.97 1015 10 16 0.00 0.00
9:54 pm 21:54 Mostly Cloudy 46 7.8 25 -3.9 44 44 WNW 13 20 29.98 1015 10 16 0.00 0.00
10:54 pm 22:54 Mostly Clear 44 6.7 24 -4.4 45 45 NW 12 19 29.99 1016 10 16 0.00 0.00
11:54 pm 23:54 Mostly Clear 43 6.1 25 -3.9 49 49 NNW 7 11 30.00 1016 10 16 0.00 0.00

Powered by AerisWeather